Погода в Пено

Россия / Тверская область     56°55′26″N   32°44′26″E
темп.,
°C
ветер,
м/с
пор.,
м/с
влажн.,
%
обл.,
%
осадки,
мм/ч
давл.,
гПа
погр.,
м
4 декабря, сб
сб400:00−3юз61290100 0.7 9951139
03:00−5зюз61289100 1.1 997767
06:00−6з51290100 0.3 999867
09:00−6з51289100 0.4 1002754
12:00−6з51188100 0.1 1005724
15:00−6з3989100 0.1 1007632
18:00−6зюз368799 0.1 1008507
21:00−10ююз119754 0.1 100910
5 декабря, вс
вс500:00−9вюв119796 0.0 101027
03:00−7всв2395100 0.3 1010127
06:00−7всв2495100 0.5 1010191
09:00−7всв2596100 0.9 1012222
12:00−6всв3491100 0.3 1013303
15:00−6всв2594100 0.5 1014284
18:00−8всв369494 0.4 1016262
21:00−10всв3695100 0.6 1018243
6 декабря, пн
пн600:00−10всв379497 0.3 1019249
03:00−11всв379485 0.4 1020249
06:00−11в3794100 0.1 1020268
09:00−11в389499 0.3 1020259
12:00−9в3691100 0.2 1020277
15:00−8в3592100 0.4 1019296
18:00−8в3795100 0.1 1018256
21:00−7в2595100 1.0 1017189
7 декабря, вт
вт700:00−6в259697 0.5 1015165
03:00−7в129899 0.9 101445
06:00−6всв1198100 0.4 101311
09:00−8ссз239892 0.6 101357
12:00−8сз359374 0.1 1014201
15:00−9сз3694100 0.1 1015277
18:00−13сз269895 0.0 1016167
21:00−15сз259986 0.1 1017125
8 декабря, ср
ср800:00−16сз289994 0.0 1018161
03:00−17сз269998 0.0 1019124
06:00−18сз2610095 0.0 1019112
09:00−17ссз2610091 0.0 1020115
12:00−13с259594 0.0 1021184
15:00−12с259669 0.0 1021191
18:00−16с269976 0.0 1022112
21:00−16ссв279973 0.0 1023126